�N����,����,�~����,�C��,���x,�C��,����,���ϕ���,�ő�u�ԕ���,�ő厞����,���˗�,�I�_���x,�n�����x,�ő啗���N��,DTYPE
"22/05/02","00:10",0.0,7.7,91.4,1006.7,282.9,1.1,1.9,290.1,0.00,6.4,15.7,"00:09:04",1
"22/05/02","00:20",0.0,7.6,91.8,1006.4,317.7,1.7,2.5,327.8,0.00,6.4,15.8,"00:14:00",1
"22/05/02","00:30",0.0,7.6,92.0,1006.4,305.4,1.1,2.2,331.1,0.00,6.4,15.5,"00:20:16",1
"22/05/02","00:40",0.0,7.3,92.3,1006.7,292.6,1.3,2.1,288.7,0.00,6.2,15.6,"00:30:32",1
"22/05/02","00:50",0.0,7.1,92.7,1006.4,276.4,1.2,1.9,318.1,0.00,6.0,15.6,"00:49:36",1
"22/05/02","01:00",0.0,7.5,93.0,1006.7,322.0,1.8,3.3,313.1,0.00,6.5,15.3,"00:57:52",1
"22/05/02","01:10",0.0,7.6,93.2,1006.7,323.7,2.1,3.4,316.4,0.00,6.6,15.2,"01:06:00",1
"22/05/02","01:20",0.0,7.6,93.4,1006.4,321.6,2.2,2.8,331.5,0.00,6.6,15.3,"01:12:40",1
"22/05/02","01:30",0.0,7.4,93.5,1006.7,296.6,1.2,2.2,311.0,0.00,6.5,15.2,"01:20:08",1
"22/05/02","01:40",0.0,7.2,93.6,1006.7,280.4,0.5,1.3,247.3,0.00,6.3,14.9,"01:38:24",1
"22/05/02","01:50",0.0,6.8,94.1,1006.9,281.4,1.2,1.9,313.8,0.00,6.0,15.3,"01:40:02",1
"22/05/02","02:00",0.0,6.9,94.3,1006.4,301.2,1.5,2.0,321.7,0.00,6.1,15.1,"01:55:28",1
"22/05/02","02:10",0.0,6.9,94.3,1006.2,300.8,1.2,2.0,313.0,0.00,6.1,15.3,"02:06:08",1
"22/05/02","02:20",0.0,6.8,94.5,1006.0,297.9,1.3,2.4,324.4,0.00,6.0,15.1,"02:11:04",1
"22/05/02","02:30",0.0,6.5,94.7,1006.2,268.0,0.8,1.7,304.8,0.00,5.8,15.0,"02:20:08",1
"22/05/02","02:40",0.0,6.4,94.9,1006.4,272.1,1.1,1.8,328.6,0.00,5.7,14.9,"02:35:36",1
"22/05/02","02:50",0.0,6.7,95.1,1006.7,279.6,0.7,1.6,259.3,0.00,6.0,15.1,"02:40:24",1
"22/05/02","03:00",0.0,6.8,95.1,1006.4,320.1,1.6,2.7,305.9,0.00,6.1,14.7,"02:58:24",1
"22/05/02","03:10",0.0,6.5,95.3,1006.7,317.7,1.8,2.5,322.7,0.00,5.8,14.7,"03:01:04",1
"22/05/02","03:20",0.0,6.4,95.4,1006.2,301.6,1.5,2.5,322.2,0.00,5.8,14.7,"03:10:32",1
"22/05/02","03:30",0.0,6.1,95.5,1006.4,287.3,1.1,1.3,310.3,0.00,5.5,14.7,"03:20:40",1
"22/05/02","03:40",0.0,6.2,95.8,1006.4,287.9,1.5,1.8,293.1,0.00,5.6,14.8,"03:38:08",1
"22/05/02","03:50",0.0,6.2,95.7,1006.4,286.0,1.3,1.9,268.3,0.00,5.6,14.7,"03:41:52",1
"22/05/02","04:00",0.0,6.0,95.8,1006.2,289.2,0.5,1.4,310.2,0.00,5.4,14.6,"03:55:36",1
"22/05/02","04:10",0.0,5.9,96.1,1006.7,306.7,1.5,2.5,309.3,0.00,5.4,14.7,"04:09:20",1
"22/05/02","04:20",0.0,6.0,96.2,1006.7,307.3,1.8,2.5,323.6,0.00,5.5,14.5,"04:16:00",1
"22/05/02","04:30",0.0,6.1,96.3,1006.4,316.8,1.8,2.6,313.6,0.00,5.6,14.4,"04:25:12",1
"22/05/02","04:40",0.0,6.1,96.4,1005.7,308.8,1.6,2.8,324.0,0.00,5.6,14.5,"04:37:58",1
"22/05/02","04:50",0.0,6.5,96.5,1005.7,333.7,2.8,4.0,337.0,0.00,6.0,14.2,"04:44:38",1
"22/05/02","05:00",0.0,6.5,96.5,1006.2,336.0,3.0,4.9,342.3,0.00,6.0,14.2,"04:51:02",1
"22/05/02","05:10",0.0,6.5,96.6,1006.0,343.2,2.5,4.0,343.1,0.00,6.0,14.3,"05:05:48",1
"22/05/02","05:20",0.0,6.5,96.7,1006.4,337.4,2.0,3.2,345.0,0.00,6.1,14.2,"05:17:48",1
"22/05/02","05:30",0.0,6.3,96.8,1006.0,329.1,1.7,2.4,322.4,0.00,5.9,14.2,"05:26:34",1
"22/05/02","05:40",0.0,6.2,96.8,1006.2,319.2,1.0,1.7,323.7,0.00,5.8,14.2,"05:33:38",1
"22/05/02","05:50",0.0,6.0,97.0,1006.2,334.4,1.7,2.1,339.2,0.00,5.6,14.3,"05:44:48",1
"22/05/02","06:00",0.0,5.9,97.1,1006.4,331.9,1.5,1.7,337.6,0.00,5.5,14.0,"05:53:50",1
"22/05/02","06:10",0.0,5.9,97.3,1006.4,330.9,1.5,1.8,329.7,0.00,5.5,14.0,"06:05:54",1
"22/05/02","06:20",0.0,6.0,97.3,1006.7,293.3,1.2,2.5,320.5,0.00,5.6,14.1,"06:11:54",1
"22/05/02","06:30",0.0,6.7,97.3,1006.7,330.2,1.7,3.1,343.7,0.01,6.3,13.9,"06:28:16",1
"22/05/02","06:40",0.0,7.2,97.3,1007.1,307.2,2.1,3.1,318.8,0.02,6.8,13.9,"06:33:04",1
"22/05/02","06:50",0.0,7.8,97.2,1007.1,304.2,2.0,3.4,319.7,0.03,7.4,13.8,"06:41:28",1
"22/05/02","07:00",0.0,8.2,97.2,1007.4,303.3,2.2,3.5,320.6,0.05,7.8,14.0,"06:54:56",1
"22/05/02","07:10",0.0,8.8,97.0,1007.4,304.0,1.5,2.6,317.0,0.06,8.4,13.8,"07:04:24",1
"22/05/02","07:20",0.0,9.1,96.6,1007.4,299.7,1.5,2.2,305.7,0.09,8.6,13.7,"07:11:52",1
"22/05/02","07:30",0.0,9.5,96.5,1008.3,285.7,1.3,2.2,312.0,0.12,9.0,13.9,"07:25:20",1
"22/05/02","07:40",0.0,10.4,95.7,1008.3,303.8,0.8,1.7,322.8,0.16,9.8,13.6,"07:33:44",1
"22/05/02","07:50",0.0,11.2,95.1,1008.1,296.1,0.8,2.2,304.3,0.18,10.5,13.8,"07:48:48",1
"22/05/02","08:00",0.0,11.5,94.2,1007.8,286.4,0.8,1.8,308.3,0.20,10.6,13.9,"07:51:28",1
"22/05/02","08:10",0.0,11.6,93.4,1008.3,325.6,1.1,1.8,336.5,0.22,10.6,13.9,"08:00:32",1
"22/05/02","08:20",0.0,12.3,92.1,1008.3,184.9,0.5,1.3,136.4,0.27,11.1,14.0,"08:18:16",1
"22/05/02","08:30",0.0,12.5,90.4,1008.6,78.7,0.5,1.2,103.7,0.30,11.0,13.8,"08:24:56",1
"22/05/02","08:40",0.0,12.9,87.1,1008.8,94.4,0.7,2.0,56.3,0.32,10.8,13.8,"08:35:52",1
"22/05/02","08:50",0.0,13.8,83.1,1008.8,338.8,0.7,2.0,328.6,0.35,11.0,13.7,"08:43:12",1
"22/05/02","09:00",0.0,14.0,76.9,1008.6,286.9,1.0,1.9,202.8,0.36,10.1,13.9,"08:58:08",1
"22/05/02","09:10",0.0,13.9,74.9,1008.8,311.2,1.5,3.1,354.7,0.38,9.6,13.9,"09:07:28",1
"22/05/02","09:20",0.0,15.2,72.4,1008.3,345.5,0.8,2.0,14.3,0.43,10.3,14.1,"09:12:32",1
"22/05/02","09:30",0.0,15.6,70.0,1008.3,32.7,0.6,1.9,130.8,0.45,10.2,14.1,"09:23:12",1
"22/05/02","09:40",0.0,15.4,67.8,1008.1,172.9,1.1,2.7,121.5,0.46,9.5,14.1,"09:32:40",1
"22/05/02","09:50",0.0,15.6,66.6,1007.8,24.7,1.1,2.5,120.9,0.48,9.5,14.2,"09:40:48",1
"22/05/02","10:00",0.0,16.0,64.8,1007.6,97.9,1.1,2.5,111.0,0.50,9.4,14.0,"09:56:56",1
"22/05/02","10:10",0.2,16.1,65.3,1007.4,159.9,1.3,2.7,191.5,0.51,9.6,14.3,"10:04:00",1
"22/05/02","10:20",0.0,16.4,64.8,1007.1,131.9,1.0,2.4,123.2,0.53,9.8,14.1,"10:17:04",1
"22/05/02","10:30",0.0,17.1,62.8,1007.6,81.6,1.1,2.2,54.9,0.54,10.0,14.5,"10:20:40",1
"22/05/02","10:40",0.0,17.9,61.8,1006.9,261.9,0.7,1.8,339.7,0.56,10.5,14.2,"10:36:00",1
"22/05/02","10:50",0.0,17.6,58.8,1006.9,146.2,1.5,3.7,190.2,0.57,9.5,14.4,"10:41:28",1
"22/05/02","11:00",0.0,18.0,59.0,1006.9,71.2,1.2,3.6,345.3,0.58,9.9,14.5,"10:55:28",1
"22/05/02","11:10",0.0,18.4,57.4,1006.7,153.6,1.8,4.3,132.5,0.59,9.9,14.6,"11:02:24",1
"22/05/02","11:20",0.0,18.6,53.7,1006.7,95.3,1.2,3.6,107.6,0.60,9.1,14.8,"11:14:40",1
"22/05/02","11:30",0.0,18.6,49.3,1006.2,352.2,1.8,3.2,338.2,0.60,7.8,14.8,"11:26:56",1
"22/05/02","11:40",0.0,18.7,49.2,1006.2,338.7,1.7,3.7,327.9,0.61,7.9,14.8,"11:31:20",1
"22/05/02","11:50",0.0,18.9,46.0,1006.0,313.8,1.5,4.0,242.6,0.62,7.1,15.0,"11:45:44",1
"22/05/02","12:00",0.0,19.1,45.9,1005.7,145.3,1.6,3.3,109.3,0.63,7.2,14.7,"11:51:20",1
"22/05/02","12:10",0.0,19.4,40.1,1005.5,116.2,1.1,2.6,33.2,0.58,5.5,14.9,"12:07:36",1
"22/05/02","12:20",0.0,18.9,41.7,1005.5,322.8,3.6,5.6,276.1,0.65,5.7,15.2,"12:14:08",1
"22/05/02","12:30",0.0,18.9,39.4,1005.2,310.6,3.5,7.0,320.4,0.64,4.8,15.2,"12:26:56",1
"22/05/02","12:40",0.0,19.7,42.3,1005.2,309.5,3.0,6.8,343.2,0.65,6.6,15.3,"12:33:20",1
"22/05/02","12:50",0.0,19.8,38.5,1005.0,299.3,2.2,4.5,336.9,0.60,5.3,15.4,"12:49:52",1
"22/05/02","13:00",0.0,20.0,37.6,1005.2,343.9,1.6,4.4,337.9,0.61,5.2,15.5,"12:55:36",1
"22/05/02","13:10",0.0,20.0,39.3,1004.8,321.6,2.3,5.1,331.5,0.58,5.8,15.6,"13:07:52",1
"22/05/02","13:20",0.0,19.9,41.1,1004.8,316.4,3.0,6.5,331.0,0.63,6.3,15.6,"13:10:40",1
"22/05/02","13:30",0.0,20.3,40.4,1004.8,239.2,2.5,5.2,182.9,0.65,6.5,15.8,"13:29:28",1
"22/05/02","13:40",0.0,19.7,39.1,1005.0,221.0,1.7,4.5,309.6,0.23,5.4,15.7,"13:39:36",1
"22/05/02","13:50",0.0,18.8,41.4,1004.8,320.2,3.0,6.2,307.9,0.20,5.5,15.8,"13:44:00",1
"22/05/02","14:00",0.0,18.8,42.7,1004.8,276.6,1.6,4.2,348.1,0.17,5.9,15.7,"13:50:56",1
"22/05/02","14:10",0.0,18.7,41.0,1004.8,269.2,2.0,4.1,244.3,0.15,5.2,15.8,"14:06:24",1
"22/05/02","14:20",0.0,18.5,42.0,1004.5,271.1,2.1,3.3,356.3,0.10,5.4,15.9,"14:11:52",1
"22/05/02","14:30",0.0,18.3,42.7,1004.8,260.3,1.8,3.7,309.2,0.07,5.5,15.9,"14:27:12",1
"22/05/02","14:40",0.0,18.1,42.3,1004.8,264.6,1.6,3.4,245.7,0.03,5.1,16.0,"14:30:40",1
"22/05/02","14:50",0.0,17.9,42.5,1004.8,285.2,1.8,3.5,307.2,0.02,5.0,16.1,"14:41:36",1
"22/05/02","15:00",0.0,17.7,44.0,1005.0,311.8,3.2,6.8,344.6,0.04,5.3,16.3,"14:56:08",1
"22/05/02","15:10",0.0,18.0,47.9,1005.5,321.6,3.5,7.0,334.8,0.23,6.8,16.4,"15:09:44",1
"22/05/02","15:20",0.0,18.1,48.2,1004.8,322.1,3.0,5.4,327.9,0.26,7.0,16.1,"15:11:20",1
"22/05/02","15:30",0.0,18.1,48.9,1005.0,338.1,2.3,4.7,346.5,0.19,7.2,16.2,"15:20:02",1
"22/05/02","15:40",0.0,17.3,49.9,1004.8,347.5,2.8,4.3,348.1,0.08,6.8,16.3,"15:37:52",1
"22/05/02","15:50",0.0,17.4,52.5,1005.2,342.4,2.6,4.2,343.7,0.14,7.6,16.4,"15:44:16",1
"22/05/02","16:00",0.0,17.6,50.0,1005.0,358.3,1.8,3.4,346.2,0.11,7.1,15.9,"15:55:52",1
"22/05/02","16:10",0.0,16.8,51.5,1005.2,342.2,3.9,6.5,345.3,0.08,6.8,16.2,"16:06:32",1
"22/05/02","16:20",0.0,16.6,55.4,1006.0,343.0,3.0,5.1,350.7,0.06,7.7,16.3,"16:14:08",1
"22/05/02","16:30",0.0,15.7,60.3,1006.2,352.9,4.4,7.0,349.3,0.06,8.1,16.4,"16:26:56",1
"22/05/02","16:40",0.0,15.1,66.2,1006.4,344.4,4.5,8.2,350.0,0.11,8.9,16.4,"16:32:40",1
"22/05/02","16:50",0.0,14.6,68.3,1006.9,351.1,2.8,6.2,344.6,0.09,8.9,16.1,"16:40:32",1
"22/05/02","17:00",0.0,14.2,70.1,1006.7,357.8,3.0,5.5,358.2,0.03,8.9,16.4,"16:59:36",1
"22/05/02","17:10",0.0,14.1,71.2,1006.9,352.2,2.1,4.3,346.9,0.01,9.0,16.3,"17:03:36",1
"22/05/02","17:20",0.0,14.1,71.9,1006.9,334.3,2.3,4.9,341.8,0.04,9.2,16.4,"17:19:20",1
"22/05/02","17:30",0.0,14.5,71.1,1007.4,327.1,2.8,5.0,322.2,0.10,9.4,16.2,"17:20:56",1
"22/05/02","17:40",0.0,14.7,71.0,1007.1,328.2,1.8,3.5,323.2,0.07,9.5,16.3,"17:34:08",1
"22/05/02","17:50",0.0,14.4,71.0,1007.1,352.8,1.8,2.7,332.6,0.05,9.3,16.2,"17:40:56",1
"22/05/02","18:00",0.0,14.5,71.1,1006.9,337.2,1.1,2.5,348.3,0.05,9.4,15.9,"17:54:00",1
"22/05/02","18:10",0.0,14.4,71.9,1007.1,325.0,2.2,3.4,337.7,0.04,9.4,16.3,"18:01:36",1
"22/05/02","18:20",0.0,14.0,72.7,1007.4,335.9,2.3,3.3,344.7,0.00,9.2,16.4,"18:11:12",1
"22/05/02","18:30",0.0,14.0,73.6,1007.8,335.6,2.1,3.6,325.8,0.00,9.4,16.3,"18:24:18",1
"22/05/02","18:40",0.0,13.9,74.1,1008.1,332.3,2.0,3.5,346.5,0.00,9.4,16.3,"18:33:44",1
"22/05/02","18:50",0.0,13.9,74.6,1007.8,334.7,1.5,2.7,342.7,0.00,9.5,16.2,"18:47:28",1
"22/05/02","19:00",0.0,13.7,75.3,1008.1,348.1,1.7,3.3,358.4,0.00,9.5,16.2,"18:55:12",1
"22/05/02","19:10",0.0,13.6,76.5,1008.3,341.6,2.0,3.4,353.6,0.00,9.6,16.2,"19:00:26",1
"22/05/02","19:20",0.0,13.4,78.0,1008.1,345.7,1.6,2.7,347.4,0.00,9.7,16.2,"19:17:04",1
"22/05/02","19:30",0.0,13.1,79.1,1008.1,354.0,1.2,2.9,339.5,0.00,9.6,16.2,"19:20:24",1
"22/05/02","19:40",0.0,13.0,79.5,1007.8,350.1,0.7,2.4,355.6,0.00,9.6,16.1,"19:30:32",1
"22/05/02","19:50",0.0,12.8,79.6,1008.3,351.3,1.2,3.2,359.0,0.00,9.4,16.0,"19:40:16",1
"22/05/02","20:00",0.0,12.8,79.5,1008.8,342.6,2.0,4.4,315.6,0.00,9.4,16.1,"19:54:28",1
"22/05/02","20:10",0.0,12.4,79.6,1008.8,9.5,1.0,2.6,335.4,0.00,9.0,16.2,"20:03:56",1
"22/05/02","20:20",0.0,12.4,79.5,1008.8,3.7,0.3,0.8,299.1,0.00,9.0,15.9,"20:10:44",1
"22/05/02","20:30",0.0,12.3,79.3,1009.3,278.3,0.7,1.2,268.6,0.00,8.9,16.1,"20:24:28",1
"22/05/02","20:40",0.0,12.1,79.3,1009.0,328.7,1.2,1.9,340.8,0.00,8.7,16.1,"20:35:28",1
"22/05/02","20:50",0.0,11.9,79.6,1009.3,338.4,1.6,2.5,355.8,0.00,8.5,16.1,"20:46:10",1
"22/05/02","21:00",0.0,11.3,80.2,1009.0,317.7,1.6,2.5,309.2,0.00,8.1,15.8,"20:54:40",1
"22/05/02","21:10",0.0,11.0,81.3,1009.5,318.3,1.3,3.1,343.7,0.00,8.0,16.0,"21:09:06",1
"22/05/02","21:20",0.0,10.9,81.9,1009.5,324.5,1.8,2.6,349.5,0.00,8.0,16.0,"21:14:56",1
"22/05/02","21:30",0.0,10.7,82.1,1009.5,329.5,1.6,2.7,314.8,0.00,7.8,15.6,"21:21:20",1
"22/05/02","21:40",0.0,10.6,82.6,1009.5,338.3,1.8,2.9,344.6,0.00,7.8,15.7,"21:34:16",1
"22/05/02","21:50",0.0,10.4,82.8,1009.7,324.8,1.3,2.6,326.3,0.00,7.6,15.7,"21:41:52",1
"22/05/02","22:00",0.0,10.4,82.9,1009.7,314.1,1.0,2.0,310.1,0.00,7.7,15.8,"21:52:16",1
"22/05/02","22:10",0.0,10.3,83.2,1010.0,325.4,1.5,2.6,341.2,0.00,7.6,15.8,"22:04:48",1
"22/05/02","22:20",0.0,10.1,83.8,1009.7,335.4,1.7,2.5,341.3,0.00,7.5,15.7,"22:11:36",1
"22/05/02","22:30",0.0,9.8,84.5,1009.7,329.6,1.3,2.0,318.5,0.00,7.4,15.6,"22:22:48",1
"22/05/02","22:40",0.0,9.5,85.2,1010.0,332.0,1.6,2.6,300.3,0.00,7.2,15.6,"22:35:12",1
"22/05/02","22:50",0.0,9.4,85.8,1010.0,336.4,1.3,2.4,341.0,0.00,7.2,15.6,"22:40:56",1
"22/05/02","23:00",0.0,9.2,86.3,1010.2,324.0,1.3,2.0,341.5,0.00,7.1,15.7,"22:50:48",1
"22/05/02","23:10",0.0,8.8,86.7,1010.0,303.3,1.1,1.9,332.0,0.00,6.7,15.5,"23:01:52",1
"22/05/02","23:20",0.0,8.7,87.3,1010.0,330.2,1.6,2.4,334.8,0.00,6.7,15.5,"23:14:16",1
"22/05/02","23:30",0.0,8.6,88.0,1010.2,329.4,2.2,3.1,335.6,0.00,6.8,15.3,"23:20:56",1
"22/05/02","23:40",0.0,8.5,88.5,1010.2,340.6,1.6,2.8,342.8,0.00,6.8,15.4,"23:38:08",1
"22/05/02","23:50",0.0,8.1,88.8,1010.4,288.4,1.2,2.6,345.7,0.00,6.4,15.5,"23:40:08",1
"22/05/02","24:00",0.0,8.0,89.4,1010.4,292.2,1.6,2.0,315.8,0.00,6.4,15.1,"23:54:32",1
